Time,TemperatureF,DewpointF,PressureIn,WindDirection,WindDirectionDegrees,WindSpeedMPH,WindSpeedGustMPH,Humidity,HourlyPrecipIn,Conditions,Clouds,dailyrainin,SoftwareType,DateUTC
2017-10-18 00:00:00,78.5,73.3,29.96,North,360,0.0,0.0,84,0.00,,---,0.00,VWS V15.00,2017-10-18 04:00:00,
2017-10-18 00:05:00,78.3,73.1,29.95,North,360,0.0,0.0,84,0.00,,---,0.00,VWS V15.00,2017-10-18 04:05:00,
2017-10-18 00:10:00,78.1,73.2,29.95,North,360,0.0,0.0,85,0.00,,---,0.00,VWS V15.00,2017-10-18 04:10:00,
2017-10-18 00:15:00,78.0,73.1,29.95,North,360,0.0,0.0,85,0.00,,---,0.00,VWS V15.00,2017-10-18 04:15:00,
2017-10-18 00:20:00,77.8,72.9,29.94,North,360,0.0,0.0,85,0.00,,---,0.00,VWS V15.00,2017-10-18 04:20:00,
2017-10-18 00:25:00,77.7,72.8,29.95,North,360,0.0,0.0,85,0.00,,---,0.00,VWS V15.00,2017-10-18 04:25:00,
2017-10-18 00:30:00,77.7,72.5,29.95,North,360,0.0,0.0,84,0.00,,---,0.00,VWS V15.00,2017-10-18 04:30:00,
2017-10-18 00:35:00,77.8,72.6,29.95,North,360,0.0,0.0,84,0.00,,---,0.00,VWS V15.00,2017-10-18 04:35:00,
2017-10-18 00:40:00,77.9,72.7,29.95,North,360,0.0,0.0,84,0.00,,---,0.00,VWS V15.00,2017-10-18 04:40:00,
2017-10-18 00:45:00,78.0,72.8,29.95,North,360,0.0,0.0,84,0.00,,---,0.00,VWS V15.00,2017-10-18 04:45:00,
2017-10-18 00:50:00,78.1,72.9,29.95,North,360,0.0,0.0,84,0.00,,---,0.00,VWS V15.00,2017-10-18 04:50:00,
2017-10-18 00:55:00,78.0,72.8,29.94,North,360,0.0,0.0,84,0.00,,---,0.00,VWS V15.00,2017-10-18 04:55:00,
2017-10-18 01:00:00,78.0,72.8,29.94,North,360,0.0,0.0,84,0.00,,---,0.00,VWS V15.00,2017-10-18 05:00:00,
2017-10-18 01:05:00,77.9,72.7,29.94,NNE,19,0.0,0.0,84,0.00,,---,0.00,VWS V15.00,2017-10-18 05:05:00,
2017-10-18 01:10:00,77.8,72.6,29.94,North,360,0.0,0.0,84,0.00,,---,0.00,VWS V15.00,2017-10-18 05:10:00,
2017-10-18 01:15:00,77.6,72.4,29.94,North,360,0.0,0.0,84,0.00,,---,0.00,VWS V15.00,2017-10-18 05:15:00,
2017-10-18 01:20:00,77.5,72.3,29.94,North,10,0.0,0.0,84,0.00,,---,0.00,VWS V15.00,2017-10-18 05:20:00,
2017-10-18 01:25:00,77.4,72.5,29.94,North,9,0.0,0.0,85,0.00,,---,0.00,VWS V15.00,2017-10-18 05:25:00,
2017-10-18 01:30:00,77.4,72.5,29.94,North,9,0.0,0.0,85,0.00,,---,0.00,VWS V15.00,2017-10-18 05:30:00,
2017-10-18 01:35:00,77.3,72.4,29.93,North,11,0.0,0.0,85,0.00,,---,0.00,VWS V15.00,2017-10-18 05:35:00,
2017-10-18 01:40:00,77.3,72.4,29.94,North,10,0.0,0.0,85,0.00,,---,0.00,VWS V15.00,2017-10-18 05:40:00,
2017-10-18 01:45:00,77.2,72.3,29.94,North,10,0.0,0.0,85,0.00,,---,0.00,VWS V15.00,2017-10-18 05:45:00,
2017-10-18 01:50:00,77.2,72.3,29.94,North,10,0.0,0.0,85,0.00,,---,0.00,VWS V15.00,2017-10-18 05:50:00,
2017-10-18 01:55:00,77.3,72.4,29.94,North,9,0.0,0.0,85,0.00,,---,0.00,VWS V15.00,2017-10-18 05:55:00,
2017-10-18 02:00:00,77.2,72.3,29.94,North,9,0.0,0.0,85,0.00,,---,0.00,VWS V15.00,2017-10-18 06:00:00,
2017-10-18 02:05:00,77.1,72.2,29.94,North,9,0.0,0.0,85,0.00,,---,0.00,VWS V15.00,2017-10-18 06:05:00,
2017-10-18 02:10:00,77.1,72.2,29.93,North,9,0.0,0.0,85,0.00,,---,0.00,VWS V15.00,2017-10-18 06:10:00,
2017-10-18 02:15:00,77.1,72.2,29.93,North,9,0.0,0.0,85,0.00,,---,0.00,VWS V15.00,2017-10-18 06:15:00,
2017-10-18 02:20:00,77.1,72.2,29.93,North,9,0.0,0.0,85,0.00,,---,0.00,VWS V15.00,2017-10-18 06:20:00,
2017-10-18 02:25:00,77.2,72.3,29.93,North,360,0.0,0.0,85,0.00,,---,0.00,VWS V15.00,2017-10-18 06:25:00,
2017-10-18 02:30:00,77.2,72.3,29.93,North,360,0.0,0.0,85,0.00,,---,0.00,VWS V15.00,2017-10-18 06:30:00,
2017-10-18 02:35:00,77.2,72.3,29.93,North,360,0.0,0.0,85,0.00,,---,0.00,VWS V15.00,2017-10-18 06:35:00,
2017-10-18 02:40:00,77.1,72.6,29.93,North,360,0.0,0.0,86,0.00,,---,0.00,VWS V15.00,2017-10-18 06:40:00,
2017-10-18 02:45:00,77.0,72.5,29.93,North,360,0.0,0.0,86,0.00,,---,0.00,VWS V15.00,2017-10-18 06:45:00,
2017-10-18 02:50:00,76.8,72.3,29.93,North,360,0.0,0.0,86,0.00,,---,0.00,VWS V15.00,2017-10-18 06:50:00,
2017-10-18 02:55:00,76.7,72.2,29.93,North,360,0.0,0.0,86,0.00,,---,0.00,VWS V15.00,2017-10-18 06:55:00,
2017-10-18 03:00:00,76.5,72.0,29.93,North,360,0.0,0.0,86,0.00,,---,0.00,VWS V15.00,2017-10-18 07:00:00,
2017-10-18 03:05:00,76.5,72.0,29.93,North,360,0.0,0.0,86,0.00,,---,0.00,VWS V15.00,2017-10-18 07:05:00,
2017-10-18 03:10:00,76.5,72.0,29.92,North,360,0.0,0.0,86,0.00,,---,0.00,VWS V15.00,2017-10-18 07:10:00,
2017-10-18 03:15:00,76.4,71.9,29.92,North,360,0.0,0.0,86,0.00,,---,0.00,VWS V15.00,2017-10-18 07:15:00,
2017-10-18 03:20:00,76.3,72.2,29.92,North,360,0.0,0.0,87,0.00,,---,0.00,VWS V15.00,2017-10-18 07:20:00,
2017-10-18 03:25:00,76.1,71.9,29.91,North,360,0.0,0.0,87,0.00,,---,0.00,VWS V15.00,2017-10-18 07:25:00,
2017-10-18 03:30:00,76.0,71.9,29.91,North,360,0.0,0.0,87,0.00,,---,0.00,VWS V15.00,2017-10-18 07:30:00,
2017-10-18 03:35:00,76.0,71.9,29.91,North,360,0.0,0.0,87,0.00,,---,0.00,VWS V15.00,2017-10-18 07:35:00,
2017-10-18 03:40:00,76.0,71.9,29.91,North,360,0.0,0.0,87,0.00,,---,0.00,VWS V15.00,2017-10-18 07:40:00,
2017-10-18 03:45:00,76.0,71.9,29.91,North,9,0.0,0.0,87,0.00,,---,0.00,VWS V15.00,2017-10-18 07:45:00,
2017-10-18 03:50:00,75.9,71.8,29.91,North,360,0.0,0.0,87,0.00,,---,0.00,VWS V15.00,2017-10-18 07:50:00,
2017-10-18 03:55:00,75.9,71.8,29.91,North,360,0.0,0.0,87,0.00,,---,0.00,VWS V15.00,2017-10-18 07:55:00,
2017-10-18 04:00:00,75.8,71.3,29.90,North,360,0.0,0.0,86,0.00,,---,0.00,VWS V15.00,2017-10-18 08:00:00,
2017-10-18 04:05:00,75.8,71.7,29.90,NNE,24,0.0,0.0,87,0.00,,---,0.00,VWS V15.00,2017-10-18 08:05:00,
2017-10-18 04:10:00,75.8,71.7,29.90,NNE,24,0.0,0.0,87,0.00,,---,0.00,VWS V15.00,2017-10-18 08:10:00,
2017-10-18 04:15:00,75.7,71.2,29.90,NNE,24,0.0,0.0,86,0.00,,---,0.00,VWS V15.00,2017-10-18 08:15:00,
2017-10-18 04:20:00,75.7,71.2,29.90,NNE,24,0.0,0.0,86,0.00,,---,0.00,VWS V15.00,2017-10-18 08:20:00,
2017-10-18 04:25:00,75.7,71.6,29.90,NNE,25,0.0,0.0,87,0.00,,---,0.00,VWS V15.00,2017-10-18 08:25:00,
2017-10-18 04:30:00,75.7,71.6,29.89,NNE,25,0.0,0.0,87,0.00,,---,0.00,VWS V15.00,2017-10-18 08:30:00,
2017-10-18 04:35:00,75.7,71.6,29.90,NNE,23,0.0,0.0,87,0.00,,---,0.00,VWS V15.00,2017-10-18 08:35:00,
2017-10-18 04:40:00,75.6,71.5,29.89,NNE,24,0.0,0.0,87,0.00,,---,0.00,VWS V15.00,2017-10-18 08:40:00,
2017-10-18 04:45:00,75.6,71.5,29.89,NNE,24,0.0,0.0,87,0.00,,---,0.00,VWS V15.00,2017-10-18 08:45:00,
2017-10-18 04:50:00,75.6,71.5,29.89,NNE,24,0.0,0.0,87,0.00,,---,0.00,VWS V15.00,2017-10-18 08:50:00,
2017-10-18 04:55:00,75.5,71.4,29.90,North,360,0.0,0.0,87,0.00,,---,0.00,VWS V15.00,2017-10-18 08:55:00,
2017-10-18 05:00:00,75.5,71.4,29.90,North,360,0.0,0.0,87,0.00,,---,0.00,VWS V15.00,2017-10-18 09:00:00,
2017-10-18 05:05:00,75.4,71.3,29.90,North,360,0.0,0.0,87,0.00,,---,0.00,VWS V15.00,2017-10-18 09:05:00,
2017-10-18 05:10:00,75.4,71.3,29.91,North,360,0.0,0.0,87,0.00,,---,0.00,VWS V15.00,2017-10-18 09:10:00,
2017-10-18 05:15:00,75.4,71.3,29.91,North,360,0.0,0.0,87,0.00,,---,0.00,VWS V15.00,2017-10-18 09:15:00,
2017-10-18 05:20:00,75.3,71.2,29.91,North,360,0.0,0.0,87,0.00,,---,0.00,VWS V15.00,2017-10-18 09:20:00,
2017-10-18 05:25:00,75.3,70.8,29.91,North,11,0.0,0.0,86,0.00,,---,0.00,VWS V15.00,2017-10-18 09:25:00,
2017-10-18 05:30:00,75.3,70.8,29.91,North,11,0.0,0.0,86,0.00,,---,0.00,VWS V15.00,2017-10-18 09:30:00,
2017-10-18 05:35:00,75.4,70.9,29.91,North,10,0.0,0.0,86,0.00,,---,0.00,VWS V15.00,2017-10-18 09:35:00,
2017-10-18 05:40:00,75.4,70.9,29.91,North,10,0.0,0.0,86,0.00,,---,0.00,VWS V15.00,2017-10-18 09:40:00,
2017-10-18 05:45:00,75.3,70.8,29.92,North,9,0.0,0.0,86,0.00,,---,0.00,VWS V15.00,2017-10-18 09:45:00,
2017-10-18 05:50:00,75.4,70.9,29.92,North,9,0.0,0.0,86,0.00,,---,0.00,VWS V15.00,2017-10-18 09:50:00,
2017-10-18 05:55:00,75.3,70.8,29.92,North,360,0.0,0.0,86,0.00,,---,0.00,VWS V15.00,2017-10-18 09:55:00,
2017-10-18 06:00:00,75.2,70.7,29.92,North,360,0.0,0.0,86,0.00,,---,0.00,VWS V15.00,2017-10-18 10:00:00,
2017-10-18 06:05:00,75.2,70.7,29.92,North,360,0.0,0.0,86,0.00,,---,0.00,VWS V15.00,2017-10-18 10:05:00,
2017-10-18 06:10:00,75.3,71.2,29.92,North,360,0.0,0.0,87,0.00,,---,0.00,VWS V15.00,2017-10-18 10:10:00,
2017-10-18 06:15:00,75.3,71.2,29.92,North,360,0.0,0.0,87,0.00,,---,0.00,VWS V15.00,2017-10-18 10:15:00,
2017-10-18 06:20:00,75.3,71.2,29.92,North,360,0.0,0.0,87,0.00,,---,0.00,VWS V15.00,2017-10-18 10:20:00,
2017-10-18 06:25:00,75.3,71.2,29.92,North,360,0.0,0.0,87,0.00,,---,0.00,VWS V15.00,2017-10-18 10:25:00,
2017-10-18 06:30:00,75.3,71.2,29.93,North,360,0.0,0.0,87,0.00,,---,0.00,VWS V15.00,2017-10-18 10:30:00,
2017-10-18 06:35:00,75.3,71.2,29.93,North,360,0.0,0.0,87,0.00,,---,0.00,VWS V15.00,2017-10-18 10:35:00,
2017-10-18 06:40:00,75.4,71.3,29.93,North,360,0.0,0.0,87,0.00,,---,0.00,VWS V15.00,2017-10-18 10:40:00,
2017-10-18 06:45:00,75.3,71.2,29.93,North,360,0.0,0.0,87,0.00,,---,0.00,VWS V15.00,2017-10-18 10:45:00,
2017-10-18 06:50:00,75.3,71.2,29.93,North,360,0.0,0.0,87,0.00,,---,0.00,VWS V15.00,2017-10-18 10:50:00,
2017-10-18 06:55:00,75.4,71.3,29.93,North,360,0.0,0.0,87,0.00,,---,0.00,VWS V15.00,2017-10-18 10:55:00,
2017-10-18 07:00:00,75.4,71.3,29.93,North,360,0.0,0.0,87,0.00,,---,0.00,VWS V15.00,2017-10-18 11:00:00,
2017-10-18 07:05:00,75.5,71.4,29.94,North,360,0.0,0.0,87,0.00,,---,0.00,VWS V15.00,2017-10-18 11:05:00,
2017-10-18 07:10:00,75.4,71.3,29.94,North,360,0.0,0.0,87,0.00,,---,0.00,VWS V15.00,2017-10-18 11:10:00,
2017-10-18 07:15:00,75.4,71.3,29.94,North,360,0.0,0.0,87,0.00,,---,0.00,VWS V15.00,2017-10-18 11:15:00,
2017-10-18 07:20:00,75.4,71.3,29.94,North,9,0.0,0.0,87,0.00,,---,0.00,VWS V15.00,2017-10-18 11:20:00,
2017-10-18 07:25:00,75.4,71.3,29.94,North,360,0.0,0.0,87,0.00,,---,0.00,VWS V15.00,2017-10-18 11:25:00,
2017-10-18 07:30:00,75.5,71.4,29.94,North,360,0.0,0.0,87,0.00,,---,0.00,VWS V15.00,2017-10-18 11:30:00,
2017-10-18 07:40:00,75.6,71.5,29.95,North,360,0.0,0.0,87,0.00,,---,0.00,VWS V15.00,2017-10-18 11:40:00,
2017-10-18 07:45:00,75.7,71.6,29.95,North,360,0.0,0.0,87,0.00,,---,0.00,VWS V15.00,2017-10-18 11:45:00,
2017-10-18 07:50:00,75.7,71.6,29.95,North,360,0.0,0.0,87,0.00,,---,0.00,VWS V15.00,2017-10-18 11:50:00,
2017-10-18 07:55:00,75.7,71.6,29.95,North,360,0.0,0.0,87,0.00,,---,0.00,VWS V15.00,2017-10-18 11:55:00,
2017-10-18 08:00:00,75.7,71.6,29.94,North,360,0.0,0.0,87,0.00,,---,0.00,VWS V15.00,2017-10-18 12:00:00,
2017-10-18 08:05:00,75.7,71.6,29.94,NNE,25,0.0,0.0,87,0.00,,---,0.00,VWS V15.00,2017-10-18 12:05:00,
2017-10-18 08:10:00,75.7,71.6,29.95,North,360,0.0,0.0,87,0.00,,---,0.00,VWS V15.00,2017-10-18 12:10:00,
2017-10-18 08:15:00,75.8,71.7,29.94,North,360,0.0,0.0,87,0.00,,---,0.00,VWS V15.00,2017-10-18 12:15:00,
2017-10-18 08:20:00,75.9,71.8,29.95,North,9,0.0,0.0,87,0.00,,---,0.00,VWS V15.00,2017-10-18 12:20:00,
2017-10-18 08:25:00,75.9,71.4,29.95,North,360,0.0,0.0,86,0.00,,---,0.00,VWS V15.00,2017-10-18 12:25:00,
2017-10-18 08:30:00,76.0,71.5,29.95,North,360,0.0,0.0,86,0.00,,---,0.00,VWS V15.00,2017-10-18 12:30:00,
2017-10-18 08:35:00,76.0,71.5,29.95,North,360,0.0,0.0,86,0.00,,---,0.00,VWS V15.00,2017-10-18 12:35:00,
2017-10-18 08:40:00,76.1,71.6,29.95,North,360,0.0,0.0,86,0.00,,---,0.00,VWS V15.00,2017-10-18 12:40:00,
2017-10-18 08:45:00,76.2,71.7,29.95,NNE,15,0.0,0.0,86,0.00,,---,0.00,VWS V15.00,2017-10-18 12:45:00,
2017-10-18 08:50:00,76.3,71.8,29.95,North,9,0.0,0.0,86,0.00,,---,0.00,VWS V15.00,2017-10-18 12:50:00,
2017-10-18 08:55:00,76.4,71.9,29.96,North,9,0.0,0.0,86,0.00,,---,0.00,VWS V15.00,2017-10-18 12:55:00,
2017-10-18 09:00:00,76.6,71.8,29.96,North,360,0.0,0.0,85,0.00,,---,0.00,VWS V15.00,2017-10-18 13:00:00,
2017-10-18 09:05:00,76.7,71.9,29.96,North,360,0.0,0.0,85,0.00,,---,0.00,VWS V15.00,2017-10-18 13:05:00,
2017-10-18 09:10:00,76.8,71.9,29.96,North,360,0.0,0.0,85,0.00,,---,0.00,VWS V15.00,2017-10-18 13:10:00,
2017-10-18 09:15:00,76.9,72.1,29.96,North,360,0.0,0.0,85,0.00,,---,0.00,VWS V15.00,2017-10-18 13:15:00,
2017-10-18 09:20:00,77.0,71.8,29.96,North,360,0.0,0.0,84,0.00,,---,0.00,VWS V15.00,2017-10-18 13:20:00,
2017-10-18 09:25:00,77.1,71.9,29.96,NNE,24,0.0,0.0,84,0.00,,---,0.00,VWS V15.00,2017-10-18 13:25:00,
2017-10-18 09:30:00,77.3,72.1,29.97,North,360,0.0,0.0,84,0.00,,---,0.00,VWS V15.00,2017-10-18 13:30:00,
2017-10-18 09:35:00,77.4,72.5,29.97,North,360,0.0,0.0,85,0.00,,---,0.00,VWS V15.00,2017-10-18 13:35:00,
2017-10-18 09:40:00,77.5,72.3,29.97,NNE,13,0.0,0.0,84,0.00,,---,0.00,VWS V15.00,2017-10-18 13:40:00,
2017-10-18 09:45:00,77.5,72.3,29.97,North,360,0.0,0.0,84,0.00,,---,0.00,VWS V15.00,2017-10-18 13:45:00,
2017-10-18 09:50:00,77.7,72.5,29.97,North,360,0.0,0.0,84,0.00,,---,0.00,VWS V15.00,2017-10-18 13:50:00,
2017-10-18 09:55:00,77.8,72.6,29.98,North,360,0.0,0.0,84,0.00,,---,0.00,VWS V15.00,2017-10-18 13:55:00,
2017-10-18 10:00:00,77.9,72.7,29.98,NNE,24,0.0,0.0,84,0.00,,---,0.00,VWS V15.00,2017-10-18 14:00:00,
2017-10-18 10:05:00,78.1,72.9,29.98,North,360,0.0,0.0,84,0.00,,---,0.00,VWS V15.00,2017-10-18 14:05:00,
2017-10-18 10:10:00,78.2,73.0,29.98,NNE,22,0.0,0.0,84,0.00,,---,0.00,VWS V15.00,2017-10-18 14:10:00,
2017-10-18 10:15:00,78.3,73.1,29.98,North,360,0.0,0.0,84,0.00,,---,0.00,VWS V15.00,2017-10-18 14:15:00,
2017-10-18 10:20:00,78.5,72.9,29.98,North,360,0.0,0.0,83,0.00,,---,0.00,VWS V15.00,2017-10-18 14:20:00,
2017-10-18 10:25:00,78.6,73.0,29.98,NNE,19,0.0,0.0,83,0.00,,---,0.00,VWS V15.00,2017-10-18 14:25:00,
2017-10-18 10:30:00,78.6,72.7,29.98,North,360,0.0,0.0,82,0.00,,---,0.00,VWS V15.00,2017-10-18 14:30:00,
2017-10-18 10:35:00,78.8,73.2,29.98,NNE,19,0.0,0.0,83,0.00,,---,0.00,VWS V15.00,2017-10-18 14:35:00,
2017-10-18 10:40:00,79.0,73.4,29.98,North,360,0.0,0.0,83,0.00,,---,0.00,VWS V15.00,2017-10-18 14:40:00,
2017-10-18 10:45:00,79.1,73.1,29.98,North,360,0.0,0.0,82,0.00,,---,0.00,VWS V15.00,2017-10-18 14:45:00,
2017-10-18 10:50:00,79.2,73.2,29.98,North,360,0.0,0.0,82,0.00,,---,0.00,VWS V15.00,2017-10-18 14:50:00,
2017-10-18 10:55:00,79.5,73.5,29.98,North,360,0.0,0.0,82,0.00,,---,0.00,VWS V15.00,2017-10-18 14:55:00,
2017-10-18 11:00:00,79.7,73.4,29.98,North,11,0.0,0.0,81,0.00,,---,0.00,VWS V15.00,2017-10-18 15:00:00,
2017-10-18 11:05:00,79.9,73.6,29.98,North,360,0.0,0.0,81,0.00,,---,0.00,VWS V15.00,2017-10-18 15:05:00,
2017-10-18 11:10:00,80.0,73.7,29.98,North,360,0.0,0.0,81,0.00,,---,0.00,VWS V15.00,2017-10-18 15:10:00,
2017-10-18 11:15:00,80.3,73.6,29.99,North,360,0.0,0.0,80,0.00,,---,0.00,VWS V15.00,2017-10-18 15:15:00,
2017-10-18 11:20:00,80.6,73.5,29.98,North,360,0.0,0.0,79,0.00,,---,0.00,VWS V15.00,2017-10-18 15:20:00,
2017-10-18 11:25:00,80.8,73.3,29.98,North,360,0.0,0.0,78,0.00,,---,0.00,VWS V15.00,2017-10-18 15:25:00,
2017-10-18 11:26:00,80.8,73.3,29.98,North,360,0.0,0.0,78,0.00,,---,0.00,VWS V15.00,2017-10-18 15:26:00,
2017-10-18 11:31:00,80.8,73.3,29.98,North,10,0.0,0.0,78,0.00,,---,0.00,VWS V15.00,2017-10-18 15:31:00,
2017-10-18 11:36:00,80.6,73.5,29.98,North,360,0.0,0.0,79,0.00,,---,0.00,VWS V15.00,2017-10-18 15:36:00,
2017-10-18 11:41:00,80.4,73.3,29.98,North,360,0.0,0.0,79,0.00,,---,0.00,VWS V15.00,2017-10-18 15:41:00,
2017-10-18 11:46:00,80.4,73.3,29.98,NNE,24,0.0,0.0,79,0.00,,---,0.00,VWS V15.00,2017-10-18 15:46:00,
2017-10-18 11:51:00,80.8,73.3,29.99,North,360,0.0,0.0,78,0.00,,---,0.00,VWS V15.00,2017-10-18 15:51:00,
2017-10-18 11:56:00,81.2,73.3,29.98,NNE,12,0.0,0.0,77,0.00,,---,0.00,VWS V15.00,2017-10-18 15:56:00,
2017-10-18 12:01:00,81.9,73.6,29.98,North,360,0.0,0.0,76,0.00,,---,0.00,VWS V15.00,2017-10-18 16:01:00,
2017-10-18 12:06:00,82.0,72.5,29.98,North,360,0.0,0.0,73,0.00,,---,0.00,VWS V15.00,2017-10-18 16:06:00,
2017-10-18 12:11:00,82.1,73.4,29.98,North,360,0.0,0.0,75,0.00,,---,0.00,VWS V15.00,2017-10-18 16:11:00,
2017-10-18 12:16:00,82.4,72.9,29.98,North,360,0.0,0.0,73,0.00,,---,0.00,VWS V15.00,2017-10-18 16:16:00,
2017-10-18 12:21:00,82.2,72.3,29.98,North,360,0.0,0.0,72,0.00,,---,0.00,VWS V15.00,2017-10-18 16:21:00,
2017-10-18 12:26:00,82.2,72.7,29.97,North,9,0.0,0.0,73,0.00,,---,0.00,VWS V15.00,2017-10-18 16:26:00,
2017-10-18 12:31:00,82.2,72.3,29.97,North,360,0.0,0.0,72,0.00,,---,0.00,VWS V15.00,2017-10-18 16:31:00,
2017-10-18 12:36:00,82.2,72.3,29.97,North,360,0.0,0.0,72,0.00,,---,0.00,VWS V15.00,2017-10-18 16:36:00,
2017-10-18 12:41:00,82.6,73.1,29.97,North,9,0.0,0.0,73,0.00,,---,0.00,VWS V15.00,2017-10-18 16:41:00,
2017-10-18 12:46:00,82.5,72.6,29.97,North,360,0.0,0.0,72,0.00,,---,0.00,VWS V15.00,2017-10-18 16:46:00,
2017-10-18 12:50:00,82.4,73.3,29.97,North,360,0.0,0.0,74,0.00,,---,0.00,VWS V15.00,2017-10-18 16:50:00,
2017-10-18 12:55:00,82.5,72.6,29.96,North,360,0.0,0.0,72,0.00,,---,0.00,VWS V15.00,2017-10-18 16:55:00,
2017-10-18 13:00:00,82.5,71.3,29.97,North,360,0.0,0.0,69,0.00,,---,0.00,VWS V15.00,2017-10-18 17:00:00,
2017-10-18 13:05:00,82.7,71.9,29.96,North,360,0.0,0.0,70,0.00,,---,0.00,VWS V15.00,2017-10-18 17:05:00,
2017-10-18 13:10:00,82.7,72.3,29.96,North,360,0.0,0.0,71,0.00,,---,0.00,VWS V15.00,2017-10-18 17:10:00,
2017-10-18 13:15:00,82.6,72.7,29.95,North,9,0.0,0.0,72,0.00,,---,0.00,VWS V15.00,2017-10-18 17:15:00,
2017-10-18 13:20:00,82.7,72.8,29.95,North,360,0.0,0.0,72,0.00,,---,0.00,VWS V15.00,2017-10-18 17:20:00,
2017-10-18 13:25:00,82.8,73.3,29.95,North,360,0.0,0.0,73,0.00,,---,0.00,VWS V15.00,2017-10-18 17:25:00,
2017-10-18 13:30:00,82.9,73.4,29.95,North,360,0.0,0.0,73,0.00,,---,0.00,VWS V15.00,2017-10-18 17:30:00,
2017-10-18 13:35:00,82.6,73.1,29.95,North,360,0.0,0.0,73,0.00,,---,0.00,VWS V15.00,2017-10-18 17:35:00,
2017-10-18 13:40:00,82.5,73.0,29.95,North,360,0.0,0.0,73,0.00,,---,0.00,VWS V15.00,2017-10-18 17:40:00,
2017-10-18 13:45:00,82.6,72.7,29.94,North,360,0.0,0.0,72,0.00,,---,0.00,VWS V15.00,2017-10-18 17:45:00,
2017-10-18 13:50:00,82.7,73.2,29.94,North,360,0.0,0.0,73,0.00,,---,0.00,VWS V15.00,2017-10-18 17:50:00,
2017-10-18 13:55:00,82.8,73.7,29.94,North,360,0.0,0.0,74,0.00,,---,0.00,VWS V15.00,2017-10-18 17:55:00,
2017-10-18 14:00:00,82.6,73.5,29.94,North,360,0.0,0.0,74,0.00,,---,0.00,VWS V15.00,2017-10-18 18:00:00,
2017-10-18 14:05:00,82.5,73.0,29.94,North,360,0.0,0.0,73,0.00,,---,0.00,VWS V15.00,2017-10-18 18:05:00,
2017-10-18 14:10:00,82.6,73.1,29.93,North,11,0.0,0.0,73,0.00,,---,0.00,VWS V15.00,2017-10-18 18:10:00,
2017-10-18 14:15:00,82.6,73.1,29.93,North,360,0.0,0.0,73,0.00,,---,0.00,VWS V15.00,2017-10-18 18:15:00,
2017-10-18 14:20:00,82.6,73.5,29.93,North,360,0.0,0.0,74,0.00,,---,0.00,VWS V15.00,2017-10-18 18:20:00,
2017-10-18 14:25:00,82.9,73.4,29.93,North,360,0.0,0.0,73,0.00,,---,0.00,VWS V15.00,2017-10-18 18:25:00,
2017-10-18 14:30:00,82.9,72.9,29.93,North,360,0.0,0.0,72,0.00,,---,0.00,VWS V15.00,2017-10-18 18:30:00,
2017-10-18 14:35:00,82.7,73.2,29.93,North,360,0.0,0.0,73,0.00,,---,0.00,VWS V15.00,2017-10-18 18:35:00,
2017-10-18 14:40:00,82.6,72.7,29.93,North,360,0.0,0.0,72,0.00,,---,0.00,VWS V15.00,2017-10-18 18:40:00,
2017-10-18 14:45:00,82.5,72.6,29.93,North,360,0.0,0.0,72,0.00,,---,0.00,VWS V15.00,2017-10-18 18:45:00,
2017-10-18 14:50:00,82.5,72.6,29.92,North,360,0.0,0.0,72,0.00,,---,0.00,VWS V15.00,2017-10-18 18:50:00,
2017-10-18 14:55:00,82.5,72.6,29.92,North,360,0.0,0.0,72,0.00,,---,0.00,VWS V15.00,2017-10-18 18:55:00,
2017-10-18 15:00:00,82.4,72.5,29.92,NNE,19,0.0,0.0,72,0.00,,---,0.00,VWS V15.00,2017-10-18 19:00:00,
2017-10-18 15:05:00,82.6,73.1,29.92,North,360,0.0,0.0,73,0.00,,---,0.00,VWS V15.00,2017-10-18 19:05:00,
2017-10-18 15:10:00,82.6,73.1,29.92,NNE,17,0.0,0.0,73,0.00,,---,0.00,VWS V15.00,2017-10-18 19:10:00,
2017-10-18 15:15:00,82.4,73.3,29.92,North,360,0.0,0.0,74,0.00,,---,0.00,VWS V15.00,2017-10-18 19:15:00,
2017-10-18 15:20:00,82.0,73.3,29.92,NNE,24,0.0,0.0,75,0.00,,---,0.00,VWS V15.00,2017-10-18 19:20:00,
2017-10-18 15:25:00,81.7,73.4,29.92,North,360,0.0,0.0,76,0.00,,---,0.00,VWS V15.00,2017-10-18 19:25:00,
2017-10-18 15:30:00,81.7,73.8,29.92,North,360,0.0,0.0,77,0.00,,---,0.00,VWS V15.00,2017-10-18 19:30:00,
2017-10-18 15:35:00,81.7,73.8,29.92,North,360,0.0,0.0,77,0.00,,---,0.00,VWS V15.00,2017-10-18 19:35:00,
2017-10-18 15:40:00,81.7,73.0,29.92,North,9,0.0,0.0,75,0.00,,---,0.00,VWS V15.00,2017-10-18 19:40:00,
2017-10-18 15:45:00,81.9,73.2,29.92,NNE,19,0.0,0.0,75,0.00,,---,0.00,VWS V15.00,2017-10-18 19:45:00,
2017-10-18 15:50:00,81.9,73.2,29.92,North,360,0.0,0.0,75,0.00,,---,0.00,VWS V15.00,2017-10-18 19:50:00,
2017-10-18 15:55:00,81.9,73.2,29.92,North,360,0.0,0.0,75,0.00,,---,0.00,VWS V15.00,2017-10-18 19:55:00,
2017-10-18 16:00:00,82.0,73.7,29.92,North,360,0.0,0.0,76,0.00,,---,0.00,VWS V15.00,2017-10-18 20:00:00,
2017-10-18 16:05:00,82.0,73.3,29.92,North,360,0.0,0.0,75,0.00,,---,0.00,VWS V15.00,2017-10-18 20:05:00,
2017-10-18 16:10:00,81.9,73.2,29.91,NNE,17,0.0,0.0,75,0.00,,---,0.00,VWS V15.00,2017-10-18 20:10:00,
2017-10-18 16:15:00,82.0,73.7,29.91,North,360,0.0,0.0,76,0.00,,---,0.00,VWS V15.00,2017-10-18 20:15:00,
2017-10-18 16:20:00,82.2,73.5,29.91,North,360,0.0,0.0,75,0.00,,---,0.00,VWS V15.00,2017-10-18 20:20:00,
2017-10-18 16:21:00,82.2,73.1,29.91,North,360,0.0,0.0,74,0.00,,---,0.00,VWS V15.00,2017-10-18 20:21:00,
2017-10-18 16:26:00,82.1,73.0,29.91,North,360,0.0,0.0,74,0.00,,---,0.00,VWS V15.00,2017-10-18 20:26:00,
2017-10-18 16:31:00,81.9,73.2,29.91,North,360,0.0,0.0,75,0.00,,---,0.00,VWS V15.00,2017-10-18 20:31:00,
2017-10-18 16:36:00,81.3,72.2,29.91,North,360,0.0,0.0,74,0.00,,---,0.00,VWS V15.00,2017-10-18 20:36:00,
2017-10-18 16:41:00,80.6,72.3,29.91,North,360,0.0,0.0,76,0.00,,---,0.00,VWS V15.00,2017-10-18 20:41:00,
2017-10-18 16:47:00,80.3,72.1,29.90,North,360,0.0,0.0,76,0.00,,---,0.00,VWS V15.00,2017-10-18 20:47:00,
2017-10-18 16:52:00,80.5,72.6,29.90,North,360,0.0,0.0,77,0.00,,---,0.00,VWS V15.00,2017-10-18 20:52:00,
2017-10-18 16:57:00,80.7,72.8,29.91,NNE,17,0.0,0.0,77,0.00,,---,0.00,VWS V15.00,2017-10-18 20:57:00,
2017-10-18 17:02:00,80.9,73.0,29.91,North,360,0.0,0.0,77,0.00,,---,0.00,VWS V15.00,2017-10-18 21:02:00,
2017-10-18 17:07:00,80.8,72.9,29.91,NNE,22,0.0,0.0,77,0.00,,---,0.00,VWS V15.00,2017-10-18 21:07:00,
2017-10-18 17:12:00,80.4,72.5,29.92,North,360,0.0,0.0,77,0.00,,---,0.00,VWS V15.00,2017-10-18 21:12:00,
2017-10-18 17:17:00,80.1,72.2,29.91,North,360,0.0,0.0,77,0.00,,---,0.00,VWS V15.00,2017-10-18 21:17:00,
2017-10-18 17:22:00,79.9,72.1,29.92,NNE,22,0.0,0.0,77,0.00,,---,0.00,VWS V15.00,2017-10-18 21:22:00,
2017-10-18 17:27:00,79.9,72.4,29.92,NNE,21,0.0,0.0,78,0.00,,---,0.00,VWS V15.00,2017-10-18 21:27:00,
2017-10-18 17:37:00,79.8,72.3,29.92,North,5,0.0,0.0,78,0.00,,---,0.00,VWS V15.00,2017-10-18 21:37:00,
2017-10-18 17:42:00,80.0,72.5,29.92,NNE,19,0.0,0.0,78,0.00,,---,0.00,VWS V15.00,2017-10-18 21:42:00,
2017-10-18 17:47:00,80.2,72.7,29.92,North,10,0.0,0.0,78,0.00,,---,0.00,VWS V15.00,2017-10-18 21:47:00,
2017-10-18 17:52:00,80.5,73.4,29.92,North,360,0.0,0.0,79,0.00,,---,0.00,VWS V15.00,2017-10-18 21:52:00,
2017-10-18 17:57:00,80.4,72.9,29.92,North,360,0.0,0.0,78,0.00,,---,0.00,VWS V15.00,2017-10-18 21:57:00,
2017-10-18 18:02:00,80.3,72.8,29.92,NNE,23,0.0,0.0,78,0.00,,---,0.00,VWS V15.00,2017-10-18 22:02:00,
2017-10-18 18:07:00,80.1,72.6,29.92,North,360,0.0,0.0,78,0.00,,---,0.00,VWS V15.00,2017-10-18 22:07:00,
2017-10-18 18:12:00,80.1,72.6,29.92,North,5,0.0,0.0,78,0.00,,---,0.00,VWS V15.00,2017-10-18 22:12:00,
2017-10-18 18:17:00,80.2,72.7,29.92,North,360,0.0,0.0,78,0.00,,---,0.00,VWS V15.00,2017-10-18 22:17:00,
2017-10-18 18:22:00,80.1,72.2,29.92,North,360,0.0,0.0,77,0.00,,---,0.00,VWS V15.00,2017-10-18 22:22:00,
2017-10-18 18:27:00,80.1,72.2,29.92,North,360,0.0,0.0,77,0.00,,---,0.00,VWS V15.00,2017-10-18 22:27:00,
2017-10-18 18:32:00,80.0,72.5,29.92,NNE,22,0.0,0.0,78,0.00,,---,0.00,VWS V15.00,2017-10-18 22:32:00,
2017-10-18 18:37:00,79.9,72.1,29.92,North,360,0.0,0.0,77,0.00,,---,0.00,VWS V15.00,2017-10-18 22:37:00,
2017-10-18 18:42:00,79.9,72.1,29.92,NNE,22,0.0,0.0,77,0.00,,---,0.00,VWS V15.00,2017-10-18 22:42:00,
2017-10-18 18:47:00,79.7,71.9,29.92,North,360,0.0,0.0,77,0.00,,---,0.00,VWS V15.00,2017-10-18 22:47:00,
2017-10-18 18:52:00,79.7,71.9,29.93,NNE,12,0.0,0.0,77,0.00,,---,0.00,VWS V15.00,2017-10-18 22:52:00,
2017-10-18 18:57:00,79.6,71.8,29.93,North,360,0.0,0.0,77,0.00,,---,0.00,VWS V15.00,2017-10-18 22:57:00,
2017-10-18 19:02:00,79.6,72.1,29.93,North,9,0.0,0.0,78,0.00,,---,0.00,VWS V15.00,2017-10-18 23:02:00,
2017-10-18 19:07:00,79.6,72.1,29.93,North,360,0.0,0.0,78,0.00,,---,0.00,VWS V15.00,2017-10-18 23:07:00,
2017-10-18 19:12:00,79.5,72.0,29.93,NNE,25,0.0,0.0,78,0.00,,---,0.00,VWS V15.00,2017-10-18 23:12:00,
2017-10-18 19:17:00,79.4,71.9,29.93,North,360,0.0,0.0,78,0.00,,---,0.00,VWS V15.00,2017-10-18 23:17:00,
2017-10-18 19:22:00,79.5,72.4,29.93,NNE,26,0.0,0.0,79,0.00,,---,0.00,VWS V15.00,2017-10-18 23:22:00,
2017-10-18 19:27:00,79.4,71.9,29.94,NNE,24,0.0,0.0,78,0.00,,---,0.00,VWS V15.00,2017-10-18 23:27:00,
2017-10-18 19:32:00,79.3,71.8,29.94,North,360,0.0,0.0,78,0.00,,---,0.00,VWS V15.00,2017-10-18 23:32:00,
2017-10-18 19:37:00,79.3,72.2,29.94,North,10,0.0,0.0,79,0.00,,---,0.00,VWS V15.00,2017-10-18 23:37:00,
2017-10-18 19:42:00,79.3,72.2,29.94,NNE,19,0.0,0.0,79,0.00,,---,0.00,VWS V15.00,2017-10-18 23:42:00,
2017-10-18 19:47:00,79.0,71.6,29.95,North,360,0.0,0.0,78,0.00,,---,0.00,VWS V15.00,2017-10-18 23:47:00,
2017-10-18 19:52:00,78.8,71.7,29.95,North,360,0.0,0.0,79,0.00,,---,0.00,VWS V15.00,2017-10-18 23:52:00,
2017-10-18 19:57:00,78.6,71.9,29.94,North,360,0.0,0.0,80,0.00,,---,0.00,VWS V15.00,2017-10-18 23:57:00,
2017-10-18 20:02:00,78.5,71.8,29.94,North,360,0.0,0.0,80,0.00,,---,0.00,VWS V15.00,2017-10-19 00:02:00,
2017-10-18 20:07:00,78.3,72.0,29.95,North,360,0.0,0.0,81,0.00,,---,0.00,VWS V15.00,2017-10-19 00:07:00,
2017-10-18 20:12:00,78.2,72.6,29.95,North,360,0.0,0.0,83,0.00,,---,0.00,VWS V15.00,2017-10-19 00:12:00,
2017-10-18 20:17:00,78.2,72.6,29.95,North,360,0.0,0.0,83,0.00,,---,0.00,VWS V15.00,2017-10-19 00:17:00,
2017-10-18 20:22:00,78.0,72.8,29.95,North,360,0.0,0.0,84,0.00,,---,0.00,VWS V15.00,2017-10-19 00:22:00,
2017-10-18 20:27:00,77.7,72.8,29.96,North,360,0.0,0.0,85,0.00,,---,0.00,VWS V15.00,2017-10-19 00:27:00,
2017-10-18 20:37:00,76.6,71.8,29.97,North,360,0.0,0.0,85,0.00,,---,0.00,VWS V15.00,2017-10-19 00:37:00,
2017-10-18 20:42:00,76.5,72.0,29.97,North,360,0.0,0.0,86,0.00,,---,0.00,VWS V15.00,2017-10-19 00:42:00,
2017-10-18 20:47:00,76.3,71.8,29.97,North,360,0.0,0.0,86,0.01,,---,0.01,VWS V15.00,2017-10-19 00:47:00,
2017-10-18 20:52:00,76.0,71.9,29.97,North,360,0.0,0.0,87,0.01,,---,0.01,VWS V15.00,2017-10-19 00:52:00,
2017-10-18 20:57:00,76.0,71.9,29.97,North,360,0.0,0.0,87,0.02,,---,0.02,VWS V15.00,2017-10-19 00:57:00,
2017-10-18 21:02:00,75.9,71.8,29.97,NNE,21,0.0,0.0,87,0.02,,---,0.02,VWS V15.00,2017-10-19 01:02:00,
2017-10-18 21:07:00,75.6,71.8,29.97,North,360,0.0,0.0,88,0.02,,---,0.02,VWS V15.00,2017-10-19 01:07:00,
2017-10-18 21:12:00,75.4,71.6,29.96,NNE,22,0.0,0.0,88,0.02,,---,0.02,VWS V15.00,2017-10-19 01:12:00,
2017-10-18 21:17:00,75.4,71.6,29.97,NNE,24,0.0,0.0,88,0.02,,---,0.02,VWS V15.00,2017-10-19 01:17:00,
2017-10-18 21:22:00,75.2,71.1,29.97,North,360,0.0,0.0,87,0.02,,---,0.02,VWS V15.00,2017-10-19 01:22:00,
2017-10-18 21:27:00,75.4,71.3,29.97,North,360,0.0,0.0,87,0.02,,---,0.02,VWS V15.00,2017-10-19 01:27:00,
2017-10-18 21:29:00,75.4,71.3,29.97,NNE,17,0.0,0.0,87,0.02,,---,0.02,VWS V15.00,2017-10-19 01:29:00,
2017-10-18 21:34:00,75.4,71.3,29.97,North,360,0.0,0.0,87,0.02,,---,0.02,VWS V15.00,2017-10-19 01:34:00,
2017-10-18 21:35:00,75.4,71.3,29.97,North,360,0.0,0.0,87,0.02,,---,0.02,VWS V15.00,2017-10-19 01:35:00,
2017-10-18 21:40:00,75.5,71.4,29.97,North,360,0.0,0.0,87,0.02,,---,0.02,VWS V15.00,2017-10-19 01:40:00,
2017-10-18 21:45:00,75.7,71.2,29.97,NNE,15,0.0,0.0,86,0.02,,---,0.02,VWS V15.00,2017-10-19 01:45:00,
2017-10-18 21:50:00,75.9,71.4,29.97,North,360,0.0,0.0,86,0.02,,---,0.02,VWS V15.00,2017-10-19 01:50:00,
2017-10-18 21:55:00,76.0,71.5,29.97,NNE,15,0.0,0.0,86,0.02,,---,0.02,VWS V15.00,2017-10-19 01:55:00,
2017-10-18 22:00:00,76.0,71.5,29.97,North,9,0.0,0.0,86,0.00,,---,0.02,VWS V15.00,2017-10-19 02:00:00,
2017-10-18 22:05:00,76.0,71.5,29.97,North,360,0.0,0.0,86,0.00,,---,0.02,VWS V15.00,2017-10-19 02:05:00,
2017-10-18 22:10:00,76.2,71.7,29.97,North,360,0.0,0.0,86,0.00,,---,0.02,VWS V15.00,2017-10-19 02:10:00,
2017-10-18 22:15:00,76.2,72.1,29.98,North,360,0.0,0.0,87,0.00,,---,0.02,VWS V15.00,2017-10-19 02:15:00,
2017-10-18 22:20:00,76.2,72.1,29.98,NNE,20,0.0,0.0,87,0.00,,---,0.02,VWS V15.00,2017-10-19 02:20:00,
2017-10-18 22:25:00,76.1,71.9,29.98,NNE,16,0.0,0.0,87,0.00,,---,0.02,VWS V15.00,2017-10-19 02:25:00,
2017-10-18 22:30:00,76.2,72.1,29.98,NNE,21,0.0,0.0,87,0.00,,---,0.02,VWS V15.00,2017-10-19 02:30:00,
2017-10-18 22:35:00,76.2,72.1,29.99,North,360,0.0,0.0,87,0.00,,---,0.02,VWS V15.00,2017-10-19 02:35:00,
2017-10-18 22:40:00,76.2,72.1,29.99,North,360,0.0,0.0,87,0.00,,---,0.02,VWS V15.00,2017-10-19 02:40:00,